Terug naar catalogus

STARLINK-35668

ActiefCommunicatieVLEO
NORAD 66401·PAYLOAD·🇺🇸 United States

Gelanceerd Nov 8, 2025 vanaf Cape Canaveral Space Force Station

Loading…

Volgende Passages (komende 24 uur)

TLE

VersSource: CelesTrak SupGP

Epoch: Sep 14, 2026, 21:06 UTC

1 66401C 25257X   26257.87965278  .00051575  00000+0  15245-2 0  2570
2 66401  53.1584  54.1121 0000992  85.8492  60.5207 15.34349815    19

Volg STARLINK-35668 in realtime met AllMySat

Download on the App Store